Location: Bruderhein
(53.8035°N, 112.9265°W)
Time: 06:41:20
(UTC+00:00)

RS-15 - Pass Details

Date: 08 April 2023
Orbit: 1885 x 2159 km, 64.8° (Epoch: 29 May)

Event Time Altitude Azimuth Distance (km) Brightness Sun altitude
Rises 05:18:33 0° 312° (NW) 5,666 11.8 -22.8°
Reaches altitude 10° 05:22:03 10° 313° (NW) 4,640 11.1 -23.1°
Maximum altitude 05:34:15 86° 44° (NE) 2,071 8.0 -24.1°
Enters shadow 05:40:23 35° 133° (SE) 2,926 8.4 -24.6°
